Weather Roundup
Issued by NWS

Home | Current Version | Previous Version | Text Only | Print | Product List | Glossary On
Versions: 1 2 3 4 5 6 7 8 9 10 11 12 13 14 15 16 17 18 19 20 21 22 23 24 25 26 27 28 29 30 31 32 33 34 35 36 37 38 39 40 41 42 43 44 45 46 47 48 49 50
000
NZUS93 KARX 032159
HRRWXR

CURRENT HOURLY OBSERVATIONS ACROSS
MUCH OF THE UPPER MISSISSIPPI VALLEY
NATIONAL WEATHER SERVICE LA CROSSE WI
500 PM CDT SUN MAY 03 2015


...SOUTHEAST MINNESOTA...


CITY           SKY/WX    TMP DP  RH WIND       PRES   REMARKS
ROCHESTER      MOSUNNY   83  50  31 S13G21    29.75F
ROCHESTER/MAYO MOCLDY    82  50  32 S9        29.74F
WINONA         MOSUNNY   82  48  30 SW5       29.75F
AUSTIN         PTSUNNY   81  52  36 SW10      29.74F
ALBERT LEA     MOSUNNY   84  46  26 S10       29.73F
DODGE CENTER   MOSUNNY   81  50  34 SW14G22   29.74F
PRESTON        MOSUNNY   81  48  32 SW9       29.78F
OWATONNA       MOSUNNY   84  46  26 S9        29.73F
FARIBAULT      MOSUNNY   81  50  34 SW7       29.73S
$$

...ELSEWHERE IN MINNESOTA...


CITY           SKY/WX    TMP DP  RH WIND       PRES   REMARKS
MINNEAPOLIS    LGT RAIN  74  59  59 N10       29.74F
INTNL FALLS    MOSUNNY   66  27  23 NW18      29.84S
DULUTH         LGT RAIN  66  38  35 NW14G29   29.86R
RED WING       MOSUNNY   82  52  34 SE6       29.70F
REDWOOD FALLS  MOSUNNY   75  37  25 N21G35    29.82R
MANKATO          N/A    N/A N/A N/A MISG        N/A  THUNDER
WORTHINGTON    PTSUNNY   79  45  29 N32G39    29.83R
FAIRMONT       MOSUNNY   84  46  26 W8        29.74S
$$

...SOUTHWEST WISCONSIN...


CITY           SKY/WX    TMP DP  RH WIND       PRES   REMARKS
LA CROSSE      PTSUNNY   85  53  33 S10       29.76F
PRAIRIE DU CHI SUNNY     79  55  42 SE9       29.81S
BOSCOBEL       SUNNY     78  58  49 VRB6      29.83F
LONE ROCK      NOT AVBL
PLATTEVILLE    SUNNY     73  57  58 S14       29.87S
FORT MC COY    PTSUNNY   80  49  33 S10       29.80S
VIROQUA        FAIR      80  51  37 S10G16    29.82F
WIS DELLS      NOT AVBL
$$

...ELSEWHERE IN WISCONSIN...


CITY           SKY/WX    TMP DP  RH WIND       PRES   REMARKS
MILWAUKEE      CLOUDY    71  52  50 W8        29.91R
MADISON        PTSUNNY   72  54  53 S15       29.88S
GREEN BAY      MOSUNNY   79  55  43 S16G31    29.81F
EAU CLAIRE     NOT AVBL
BLACK RVR FLS  FAIR      83  49  30 W8        29.78F
MEDFORD        MOSUNNY   77  52  41 SW7       29.79F
WAUSAU         SUNNY     79  51  37 SW10      29.77F
WIS RAPIDS     MOSUNNY   81  50  33 SW14G20   29.80F
MARSHFIELD     PTSUNNY   81  52  36 W8        29.78F
RICE LAKE      MOSUNNY   79  47  31 SW3       29.78S
$$

...NORTHEAST IOWA...


CITY           SKY/WX    TMP DP  RH WIND       PRES   REMARKS
DECORAH        SUNNY     82  52  34 SW9G15    29.79S
MASON CITY     MOSUNNY   83  58  42 S16       29.76F
CHARLES CITY   MOSUNNY   82  55  39 S15       29.79S
OELWEIN        MOSUNNY   81  59  47 S20       29.82S
$$

...ELSEWHERE IN IOWA...


CITY           SKY/WX    TMP DP  RH WIND       PRES   REMARKS
DES MOINES     PTSUNNY   83  57  41 SW14G24   29.77F
IOWA CITY      MOSUNNY   82  57  42 S16G22    29.83F
FORT DODGE     MOSUNNY   82  61  47 S13       29.76S
$$

...NORTHERN ILLINOIS...


CITY           SKY/WX    TMP DP  RH WIND       PRES   REMARKS
CHICAGO-OHARE  CLOUDY    77  46  33 SW12      29.89F
CHICAGO-MIDWAY CLOUDY    81  46  29 SW16      29.90S
MOLINE         MOSUNNY   83  55  38 SW20G25   29.83F
ROCKFORD       TSTM      61  58  90 NE5       29.96S FOG
PEORIA         MOSUNNY   85  51  31 SW17      29.88S
$$

NOTE: "FAIR" INDICATES FEW OR NO CLOUDS BELOW 12,000 FEET WITH NO
SIGNIFICANT WEATHER AND/OR OBSTRUCTIONS TO VISIBILITY. WIND
SPEEDS ARE IN MILES-PER-HOUR.



USA.gov is the U.S. government's official web portal to all federal, state and local government web resources and services.